Powrót do katalogu

ISIS 2

AktywnyNaukaPO
NORAD 5104·PAYLOAD·🇨🇦 Canada

Wystrzelony Apr 1, 1971 z Vandenberg Space Force Base

Loading…

Następne Przeloty (najbliższe 24 godziny)

TLE

ŚwieżeSource: Space-Track

Epoka: Sep 14, 2026, 02:06 UTC

1 05104U 71024A   26257.08801278  .00000035  00000-0  12448-3 0  9990
2 05104  88.1611 302.1364 0042234 252.3509 134.9627 12.67886938566015

Śledź ISIS 2 w czasie rzeczywistym z AllMySat

Download on the App Store